EHI
2 2 2 3 3 3 3 2 1 0 0 0 0 0 0 0 0 0 0 0 0 0 0 0 0 0 0 0 0 0 0 0 0 0 0 0 0 0
1 1 1 2 3 3 3 3 2 1 0 0 0 0 0 0 0 0 0 0 0 0 0 0 0 0 0 0 0 0 0 0 0 0 0 0 0 0
2 1 2 3 3 3 3 3 3 2 1 0 1 1 0 0 0 0 0 0 0 0 0 0 0 0 0 0 0 0 0 0 0 0 0 0 0 0
4 4 5 6 5 4 3 3 3 3 2 2 2 2 1 0 0 0 0 0 0 0 0 0 0 0 0 0 0 0 0 0 0 0 0 0 0 0
5 7 8 8 6 5 4 4 3 3 3 3 3 2 1 0 0 0 0 0 0 0 0 0 0 0 0 0 0 0 0 0 0 0 0 0 0 0
6 7 8 8 6 5 5 4 3 2 3 3 3 2 1 0 0 0 0 0 0 0 0 0 0 0 0 0 0 0 0 0 0 0 0 0 0 0
6 6 6 5 4 4 4 3 3 2 3 3 4 3 1 0 0 0 0 0 0 0 0 0 0 0 0 0 0 0 0 0 0 0 0 0 0 0
6 5 4 4 3 3 2 1 1 2 2 3 4 4 2 1 0 0 0 0 0 0 0 0 0 0 0 0 0 0 0 0 0 0 0 0 0 0
6 6 5 4 3 3 2 1 1 1 1 2 3 3 2 2 1 0 0 0 0 0 0 0 0 0 0 0 0 0 0 0 0 0 0 0 0 0
6 6 5 4 3 3 3 3 2 1 0 1 1 1 1 1 1 0 0 0 0 0 0 0 0 0 0 0 0 0 0 0 0 0 0 0 0 0
5 5 5 3 1 2 3 3 3 2 1 0 0 0 0 0 0 0 0 0 0 0 0 0 0 0 0 0 0 0 0 0 0 0 0 0 0 0
4 4 4 2 1 1 2 3 3 3 2 1 1 1 0 0 0 0 0 0 0 0 0 0 0 0 0 0 0 0 0 0 0 0 0 0 0 0
3 3 2 1 0 0 1 2 2 2 2 2 2 1 0 0 0 0 0 0 0 0 0 0 0 0 0 0 0 0 0 0 0 0 0 0 0 0
2 2 1 0 0 0 0 1 1 1 1 1 1 1 0 0 0 0 0 0 0 0 0 0 0 0 0 0 0 0 0 0 0 0 0 0 0 0
1 0 0 0 0 0 0 0 0 0 0 0 0 0 0 0 0 0 0 0 0 0 0 0 0 0 0 0 0 0 0 0 0 0 0 0 0 0
1 1 1 0 0 0 0 0 0 0 0 0 0 0 0 0 0 0 0 0 0 0 0 0 0 0 0 0 0 0 0 0 0 0 0 0 0 0
2 2 2 1 1 1 0 0 0 0 0 0 0 0 0 0 0 0 0 0 0 0 0 0 0 0 0 0 0 0 0 0 0 0 0 0 0 0
3 3 3 3 2 2 1 1 1 1 0 0 0 0 0 0 0 0 0 0 0 0 0 0 0 0 0 0 0 0 0 0 0 0 0 0 0 0
3 3 3 3 3 3 3 2 2 2 1 0 0 0 0 0 0 0 0 0 0 0 0 0 0 0 0 0 0 0 0 0 0 0 0 0 0 0
3 3 3 3 3 3 3 3 3 3 2 1 1 1 1 1 1 1 0 0 0 0 0 0 0 0 0 0 0 0 0 0 0 0 0 0 0 0
3 3 3 3 3 3 3 3 3 3 3 3 2 2 2 2 1 0 0 0 0 0 0 0 0 0 0 0 0 0 0 0 0 0 0 0 0 0
3 3 3 3 3 3 3 3 3 3 3 3 3 3 3 2 1 0 0 0 0 0 0 0 0 0 0 0 0 0 0 0 0 0 0 0 0 0
3 3 3 3 3 3 3 3 3 3 3 3 3 3 3 1 0 0 0 0 0 0 0 0 0 0 0 0 0 0 0 0 0 0 0 0 0 0
Wind_Speed
3 3 3 2 2 2 2 3 3 2 2 2 1 1 1 1 0 0 1 0 1 1 0 0 1 1 1 1 2 2 2 2 1 1 1 1 1 2
3 3 3 2 2 2 2 2 2 3 2 1 1 1 1 1 0 0 0 1 1 1 1 1 1 2 2 2 3 3 3 3 3 3 2 2 1 1
3 3 4 3 2 2 2 2 2 2 3 2 1 1 1 1 1 0 0 0 0 0 1 1 1 2 2 2 3 3 3 3 3 3 3 3 3 2
4 4 4 3 3 2 2 3 2 3 3 3 2 1 2 1 1 1 0 0 1 1 0 1 1 2 2 2 2 3 2 3 3 3 3 3 2 2
5 5 4 4 4 3 3 3 2 2 2 2 2 1 1 1 1 1 1 1 1 1 1 1 1 2 2 2 3 3 2 3 3 3 3 3 3 3
4 4 4 5 5 4 3 4 3 3 2 2 2 1 1 1 1 1 1 1 1 1 1 1 1 1 1 2 2 3 3 3 3 3 2 2 2 2
3 4 4 5 5 4 3 4 4 3 2 2 2 2 2 1 2 2 2 1 1 1 1 1 1 1 1 1 2 3 3 3 3 3 3 2 1 1
4 3 3 4 4 5 6 6 6 5 4 3 3 3 4 3 2 2 1 1 2 1 1 1 1 1 1 1 2 3 4 4 4 3 3 2 2 1
4 3 3 3 4 3 4 5 5 6 6 5 4 5 4 4 3 3 3 3 3 1 2 2 1 2 2 2 3 4 5 5 4 3 3 2 2 1
4 4 4 4 4 4 4 3 3 3 4 4 4 4 4 3 5 4 4 2 1 1 2 2 1 2 1 2 3 4 4 5 4 4 4 3 3 2
4 4 5 5 5 5 5 4 3 2 2 3 3 3 3 4 4 3 3 2 1 1 1 1 1 1 1 2 2 3 4 4 4 4 4 4 3 3
3 3 5 5 4 6 5 5 4 3 2 2 1 1 1 2 4 4 4 3 2 2 2 2 1 1 1 1 1 1 2 3 4 4 4 4 4 2
3 3 2 4 4 5 5 4 5 3 2 2 1 1 0 1 2 2 3 3 3 2 2 3 2 2 1 1 1 2 2 2 2 3 4 4 4 4
3 3 2 4 4 4 4 4 4 4 2 2 1 1 1 1 2 2 3 3 3 3 3 4 2 3 2 2 2 1 2 2 3 2 2 3 5 6
3 3 3 4 4 3 3 3 4 3 2 2 2 2 2 2 2 2 2 2 2 1 2 3 3 3 3 3 2 2 2 2 3 3 3 3 3 3
2 2 3 3 2 1 1 2 2 2 3 3 2 2 1 1 1 1 1 1 1 1 1 2 2 3 3 3 3 3 3 2 2 3 3 3 4 4
3 1 1 1 1 1 1 1 1 2 2 2 2 2 1 1 1 1 1 1 2 2 2 1 2 2 3 3 3 3 3 3 3 3 3 4 4 5
4 2 2 2 2 2 2 2 2 2 3 3 2 2 2 2 2 1 1 2 2 2 2 1 1 1 1 2 5 4 3 3 3 3 3 4 5 5
3 2 2 2 2 2 2 2 2 3 2 3 3 2 2 2 2 2 2 2 2 2 2 2 2 2 2 4 3 6 4 4 3 3 4 4 5 5
2 3 3 3 3 3 3 3 2 2 2 2 2 2 3 3 2 2 2 2 2 2 1 1 2 2 4 4 3 3 6 5 4 4 4 4 5 5
2 2 3 3 3 3 3 3 3 3 3 2 2 2 2 3 3 2 2 3 2 2 3 3 3 4 2 2 3 3 3 6 6 4 4 4 4 4
2 3 3 3 3 3 3 3 3 3 3 3 3 2 2 3 3 3 2 2 2 3 3 2 1 1 1 3 4 4 4 3 4 7 7 6 4 4
2 2 3 3 3 3 3 4 4 3 3 3 3 3 3 3 3 3 3 3 2 2 2 2 1 1 2 2 3 3 4 3 2 3 4 6 9 10
Wind_Direction
204 196 196 201 191 193 185 181 180 218 255 255 258 276 260 244 332 260 257 39 103 108 107 147 140 130 122 110 98 88 73 79 80 43 341 322 293 274
197 192 201 202 194 192 191 193 194 197 231 238 239 278 283 274 29 247 243 83 95 107 102 115 125 128 120 111 110 101 87 84 89 84 74 54 13 332
201 198 209 197 189 193 185 186 196 191 219 250 239 256 237 262 312 310 270 234 322 89 121 121 116 119 117 115 114 107 94 90 91 88 83 70 58 49
200 195 207 196 193 193 189 196 200 200 203 233 241 233 242 250 265 262 294 285 293 355 186 164 143 134 135 135 131 123 113 103 93 85 78 73 65 62
197 196 201 191 198 197 196 203 204 200 202 212 235 230 256 254 282 288 285 301 273 295 266 229 177 152 143 148 147 145 146 136 118 99 82 70 67 66
195 194 196 194 200 198 201 206 198 193 193 204 225 226 238 247 229 256 275 281 270 285 298 262 196 166 174 178 173 170 170 162 150 135 117 92 75 70
197 196 196 195 198 199 197 200 193 195 193 203 216 220 225 220 229 232 248 265 259 246 248 258 243 238 233 231 211 196 183 174 170 165 152 139 115 77
201 203 201 205 210 210 207 200 194 195 199 204 216 226 234 230 219 215 218 230 245 213 224 246 210 234 243 232 218 196 189 186 184 179 172 165 149 122
210 208 207 201 211 221 213 207 208 207 199 198 212 226 229 220 209 209 210 219 240 221 206 235 218 239 243 241 227 210 199 195 193 190 189 190 188 192
212 213 211 214 211 204 198 199 209 214 209 207 217 231 233 221 209 208 208 214 253 205 197 222 222 244 254 243 230 217 210 206 203 201 201 204 207 215
217 216 214 218 216 196 190 198 213 228 210 202 218 235 230 208 187 170 169 188 232 224 194 208 216 248 251 245 232 221 217 214 214 213 208 206 209 213
210 221 219 215 211 193 195 195 209 223 210 196 212 245 221 187 174 189 191 193 198 217 183 192 193 199 243 236 238 234 223 224 222 220 215 209 202 206
209 218 222 199 194 192 195 205 211 200 189 187 194 196 174 187 194 201 203 198 199 216 182 181 190 196 218 250 256 232 220 223 220 222 223 218 212 208
210 216 211 188 183 182 192 206 190 174 170 170 188 215 215 223 234 223 216 217 220 218 192 185 193 196 201 226 247 235 231 232 222 224 231 223 223 220
198 195 186 174 173 177 183 180 171 175 176 183 206 221 231 234 218 212 219 229 233 223 180 193 198 193 206 222 232 233 244 239 221 227 231 230 227 217
180 150 138 136 146 175 176 177 178 182 189 200 213 216 200 192 195 197 207 211 216 255 241 214 209 199 212 226 227 236 234 234 223 228 232 238 234 224
163 149 144 137 154 184 216 205 187 188 202 209 203 197 189 196 212 214 204 198 213 239 258 252 234 228 231 223 228 236 242 245 242 228 228 244 243 231
153 170 196 196 201 211 217 218 209 216 219 212 205 202 201 207 213 209 206 210 226 238 247 248 218 225 245 243 223 236 245 251 248 231 228 243 255 245
159 190 210 214 217 219 221 221 221 223 214 207 202 203 205 207 208 210 207 218 238 247 251 235 217 218 251 272 252 209 234 251 245 236 233 236 253 256
194 207 217 224 224 219 217 219 220 212 208 208 209 207 202 199 201 207 207 213 232 246 251 235 224 224 237 260 273 259 224 235 239 244 246 245 253 262
213 225 227 224 229 224 218 213 208 204 204 203 207 207 211 205 203 207 211 210 217 236 249 255 256 247 244 234 252 262 250 228 232 240 241 245 256 257
220 227 233 229 227 223 215 207 203 205 205 206 210 208 207 213 212 210 213 217 225 239 255 274 292 214 214 234 253 263 270 274 247 244 236 229 239 248
232 233 234 232 224 215 215 207 203 208 206 205 205 207 204 211 216 213 216 224 234 245 259 276 287 246 245 248 258 268 274 277 274 267 262 252 249 257